Regional Weather Roundup
Issued by NWS

Home | Current Version | Previous Version | Graphics & Text | Print | Product List | Glossary On
Versions: 1 2 3 4 5 6 7 8 9 10 11 12 13 14 15 16 17 18 19 20 21 22 23 24 25 26 27 28 29 30 31 32 33 34 35 36 37 38 39 40 41 42 43 44 45 46 47 48 49 50
000
ASUS43 KMKX 261411
RWRWI

WISCONSIN REGIONAL WEATHER ROUNDUP
NATIONAL WEATHER SERVICE MILWAUKEE/SULLIVAN WI
900 AM CDT SUN MAR 26 2017

NOTE: "FAIR" INDICATES FEW OR NO CLOUDS BELOW 12,000 FEET WITH NO
SIGNIFICANT WEATHER AND/OR OBSTRUCTIONS TO VISIBILITY.

WIZ001-002-006>008-014>016-023>028-261500-
NORTHWEST WISCONSIN

CITY           SKY/WX    TMP DP  RH WIND       PRES   REMARKS
SUPERIOR ARPT  DRIZZLE   33  33 100 NE6       30.01S WCI  28
ASHLAND        CLOUDY    34  33  96 N5        30.00S FOG     WCI  30
HAYWARD        CLOUDY    36  33  89 NE5       29.96S WCI  32
SIREN          LGT RAIN  34  34  99 NE5       29.98R WCI  30
CUMBERLAND     CLOUDY    34  32  93 NE5       29.95S FOG     WCI  30
RICE LAKE      CLOUDY    35  34  99 CALM      29.96F FOG
CHETEK         CLOUDY    34  34  99 CALM      29.95S
LADYSMITH      CLOUDY    35  35  98 NE3       29.96S
EAU CLAIRE     MIX PCPN  36  35  96 NE7       29.93S FOG     WCI  30
MENOMONIE      CLOUDY    36  35  94 NE5       29.94S WCI  32
NEW RICHMOND   CLOUDY    35  35 100 NE5       29.95F FOG     WCI  31
OSCEOLA        CLOUDY    36  36 100 N3        29.99S
$$

WIZ003>005-009-010-017-018-261500-
NORTH CENTRAL WISCONSIN

CITY           SKY/WX    TMP DP  RH WIND       PRES   REMARKS
MANITOWISH WTR DRIZZLE   32  32 100 E3        29.94F
ARBOR VITAE    MIX PCPN  34  33  96 E3        29.93F
WOODRUFF       MIX PCPN  34  33  96 E3        29.93F
RHINELANDER    LGT RAIN  34  33  96 NE3       29.94F FOG
EAGLE RIVER    MIX PCPN  32  32 100 E3        29.94F
LAND O LAKES   MIX PCPN  32  32  99 E5        29.97S WCI  28
PHILLIPS       DRIZZLE   33  33 100 NE3       29.93F
TOMAHAWK       DRIZZLE   33  32  96 NE3       29.94F
MEDFORD        DRIZZLE   33  32  96 E8        29.91F WCI  26
MERRILL        LGT RAIN  33  33 100 E3        29.95S VSB 1
$$

WIZ029-030-035-036-043>047-261500-
CENTRAL WISCONSIN

CITY           SKY/WX    TMP DP  RH WIND       PRES   REMARKS
WAUSAU         CLOUDY    33  33 100 NE5       29.92F FOG     WCI  29
MOSINEE        CLOUDY    34  34 100 NE10      29.93F FOG     WCI  26
MARSHFIELD     RAIN      33  32  96 NE8       29.91S FOG     WCI  26
STEVENS POINT  DRIZZLE   32  32 100 NE6       29.93F WCI  26
WAUPACA        CLOUDY    36  35  95 NE5       29.94F FOG     WCI  32
WAUTOMA        CLOUDY    35  35 100 NE9       29.92F FOG     WCI  28
WISC RAPIDS    CLOUDY    34  34 100 E8        29.93F WCI  27
CAMP DOUGLAS   CLOUDY    36  36 100 E7        29.91S FOG     WCI  30
$$

WIZ011>013-019>022-031-037>040-048>050-261500-
NORTHEAST WISCONSIN

CITY           SKY/WX    TMP DP  RH WIND       PRES   REMARKS
ANTIGO         CLOUDY    31  31 100 E6        29.93F FOG     WCI  26
SHAWANO        RAIN      35  33  94 NE5       29.96F WCI  31
OCONTO         CLOUDY    34  33  98 NE6       29.97F WCI  29
STURGEON BAY   LGT RAIN  36  35  96 E7        29.97F WCI  30
GREEN BAY      LGT RAIN  36  36 100 NE12      29.95F WCI  28
MANITOWOC      LGT RAIN  38  37  97 NE7       29.95F FOG     WCI  33
APPLETON       DRIZZLE   36  36 100 NE8       29.92S FOG     WCI  29
CLINTONVILLE   LGT RAIN  34  32  93 NE7       29.95S WCI  28
OSHKOSH        FOG       37  35  92 NE8       29.92F VSB 1   WCI  31
$$

WIZ032>034-041-042-053>061-261500-
SOUTHWEST WISCONSIN

CITY           SKY/WX    TMP DP  RH WIND       PRES   REMARKS
LA CROSSE      LGT RAIN  38  37  97 NW7       29.91S FOG     WCI  33
SPARTA         CLOUDY    36  36 100 E5        29.92S FOG     WCI  32
VIROQUA        CLOUDY    37  37 100 NE7       29.87S VSB 1/4 WCI  31
BOSCOBEL       LGT RAIN  41  39  93 NE6       29.88S VSB 1
PRAIRIE DU CHI DRIZZLE   39  38  97 NW3       29.87S
PLATTEVILLE    CLOUDY    42  42 100 NE9       29.84F
$$

WIZ056-057-062-063-064-067-068-261500-
SOUTH CENTRAL WISCONSIN

CITY           SKY/WX    TMP DP  RH WIND       PRES   REMARKS
REEDSBURG      FOG       37  37 100 NE6       29.89S VSB 1   WCI  32
BARABOO/DELLS  FOG       37  37  99 NE7       29.89S VSB 1/4 WCI  31
LONE ROCK      CLOUDY    41  39  93 E7        29.88S FOG
MINERAL POINT  RAIN      41  41 100 NE6       29.84F
MADISON        LGT RAIN  41  40  96 E8        29.87F VSB 1/4
MIDDLETON      CLOUDY    42  42 100 E7        29.88S VSB 1/4
WATERTOWN      DRIZZLE   40  40 100 E7        29.87F
MONROE         SNOW      41  41 100 NE8       29.84S VSB<1/4
JANESVILLE     FOG       45  45 100 E6        29.85S VSB 1/2
$$

WIZ051-052-058>065-066-070>072-261500-
SOUTHEAST WISCONSIN

CITY           SKY/WX    TMP DP  RH WIND       PRES   REMARKS
MILWAUKEE      LGT RAIN  40  38  93 NE8       29.89F VSB 1/4 WCI  34
WAUKESHA       LGT RAIN  37  37 100 E7        29.90F VSB 3/4 WCI  32
MILWAUKEE/TIMM LGT RAIN  37  36  93 NE6       29.91F FOG     WCI  33
RACINE         HVY RAIN  41  40  96 NE8       29.89F FOG
KENOSHA        HVY RAIN  43  42  97 E7        29.87F VSB 1/2
FOND DU LAC    CLOUDY    40  37  89 NE7       29.91F FOG
SHEBOYGAN      LGT RAIN  38  36  92 NE9       29.93F FOG     WCI  31
WEST BEND      LGT RAIN  37  37 100 E10       29.90F WCI  30
JUNEAU         FOG       39  39 100 NE5       29.90S VSB 1/2
$$

LSZ147-162-261500-
LAKE SUPERIOR

STATION/POSITION TIME  TEMP    WIND        PRES    WAVE
                       AIR SEA DIR/SP/G            HT/PER
                 (UTC) (F)     (DEG/KT/KT) (MB)    (FT/S)
DEVILS ISLAND    1400   33      50/  6/  6 1017.1F
PORT WING        1340   34      30/  9/  9 1016.3S
SAXON HARBOR     1330   33     300/  3/  3 1015.6F
$$

LMZ867-665-643>646-261500-
LAKE MICHIGAN

STATION/POSITION TIME  TEMP    WIND        PRES    WAVE
                       AIR SEA DIR/SP/G            HT/PER
                 (UTC) (F)     (DEG/KT/KT) (MB)    (FT/S)
CHAMBERS ISLAND  1340   34      60/  6/  9 1015.2F
NORTHPORT PIER   1340   34      70/ 11/ 15 1015.6F
SISTER BAY       1306   34     130/  8/ 10   N/A
KEWAUNEE LAKESHO 1348   36      70/  5/  9 1014.2S
SHEBOYGAN LAKESH 1400   37      30/  9/ 10 1013.9F
PORT WASHINGTON  1340   38      40/ 11/ 14 1014.2F
MILWAUKEE LAKESH 1350   38      20/ 11/ 12   N/A
KENOSHA   LAKESH 1400   42      50/  8/  8 1011.9
$$

TC  - TEMPERATURE IN CELSIUS
VSB - VISIBILITY IN STATUTE MILES
WCI - WIND CHILL INDEX
HX  - HEAT INDEX




USA.gov is the U.S. government's official web portal to all federal, state and local government web resources and services.